TimeMDT,TemperatureF,Dew PointF,Humidity,Sea Level PressureIn,VisibilityMPH,Wind Direction,Wind SpeedMPH,Gust SpeedMPH,PrecipitationIn,Events,Conditions,WindDirDegrees,DateUTC
12:53 AM,34.0,25.0,70,30.12,10.0,Calm,Calm,-,N/A,,Overcast,0,2013-10-18 06:53:00
1:53 AM,35.1,23.0,61,30.12,10.0,WNW,4.6,-,N/A,,Overcast,290,2013-10-18 07:53:00
2:53 AM,36.0,21.9,57,30.12,10.0,Calm,Calm,-,N/A,,Overcast,0,2013-10-18 08:53:00
3:53 AM,34.0,21.9,61,30.12,10.0,West,3.5,-,N/A,,Overcast,280,2013-10-18 09:53:00
4:53 AM,33.1,19.9,59,30.16,10.0,WNW,5.8,-,N/A,,Overcast,300,2013-10-18 10:53:00
5:53 AM,33.1,21.9,64,30.17,10.0,NW,4.6,-,N/A,,Clear,320,2013-10-18 11:53:00
6:53 AM,30.9,19.0,61,30.21,10.0,NW,3.5,-,N/A,,Partly Cloudy,310,2013-10-18 12:53:00
7:53 AM,30.9,19.9,64,30.22,10.0,North,3.5,-,N/A,,Clear,350,2013-10-18 13:53:00
8:53 AM,33.1,21.0,61,30.24,10.0,Calm,Calm,-,N/A,,Clear,0,2013-10-18 14:53:00
9:53 AM,36.0,21.0,55,30.24,10.0,Calm,Calm,-,N/A,,Clear,0,2013-10-18 15:53:00
10:53 AM,39.0,21.0,49,30.22,10.0,WNW,3.5,-,N/A,,Clear,290,2013-10-18 16:53:00
11:53 AM,41.0,18.0,40,30.21,10.0,NNW,5.8,-,N/A,,Clear,340,2013-10-18 17:53:00
12:53 PM,43.0,19.9,40,30.20,10.0,NW,3.5,-,N/A,,Clear,320,2013-10-18 18:53:00
1:53 PM,45.0,21.0,39,30.16,10.0,ESE,3.5,-,N/A,,Clear,110,2013-10-18 19:53:00
2:53 PM,48.9,21.9,35,30.12,10.0,North,9.2,-,N/A,,Clear,350,2013-10-18 20:53:00
3:53 PM,48.9,19.9,32,30.13,10.0,NW,10.4,-,N/A,,Clear,320,2013-10-18 21:53:00
4:53 PM,48.0,19.9,33,30.14,10.0,West,15.0,-,N/A,,Clear,260,2013-10-18 22:53:00
5:53 PM,45.0,19.0,36,30.17,10.0,West,12.7,-,N/A,,Clear,270,2013-10-18 23:53:00
6:53 PM,39.9,19.9,45,30.21,10.0,West,10.4,-,N/A,,Clear,260,2013-10-19 00:53:00
7:53 PM,36.0,21.0,55,30.25,10.0,West,12.7,-,N/A,,Clear,270,2013-10-19 01:53:00
8:53 PM,33.1,19.9,59,30.26,10.0,WSW,11.5,-,N/A,,Clear,250,2013-10-19 02:53:00
9:53 PM,33.1,19.9,59,30.25,10.0,South,6.9,-,N/A,,Clear,190,2013-10-19 03:53:00
10:53 PM,32.0,21.0,64,30.24,10.0,SW,10.4,-,N/A,,Clear,230,2013-10-19 04:53:00
11:53 PM,30.9,21.0,67,30.24,10.0,SW,8.1,-,N/A,,Clear,220,2013-10-19 05:53:00